Location: Tr�vern
(48.0333°N, 4.6000°W)
Time: 17:32:32
(UTC+00:00)

Cosmos 2221 Rocket - Pass Details

Date: 14 July 2020
Orbit: 620 x 649 km, 82.5° (Epoch: 13 August)

Event Time Altitude Azimuth Distance (km) Brightness Sun altitude
Rises 02:09:25 0° 352° (N) 2,915 8.0 -16.5°
Reaches altitude 10° 02:11:40 10° 355° (N) 2,001 7.1 -16.3°
Maximum altitude 02:16:05 70° 79° (E) 665 3.8 -16.0°
Enters shadow 02:19:28 17° 161° (SSE) 1,588 5.3 -15.7°
